SCP
2 1 1 0 0 1 1 1 2 1 1 1 1 1 0 0 0 0 0 0 0 0 0 0 0 1 1 1 0 0 0 0 0 0 0 0 0 0 0 0 0 0 0
2 1 1 0 0 1 1 1 1 1 1 1 1 1 0 0 0 0 0 0 0 0 0 0 0 0 1 1 1 0 0 0 0 0 0 0 0 0 0 0 0 0 0
1 1 1 0 0 1 1 1 1 1 1 1 1 1 0 0 0 0 0 0 0 0 0 0 0 0 1 1 1 1 1 1 1 1 0 0 0 0 0 0 0 0 0
1 1 0 0 0 0 1 1 1 0 1 0 0 0 0 0 0 0 0 0 0 0 0 0 0 0 0 1 1 1 1 1 1 1 1 0 0 0 0 0 0 0 0
1 1 0 0 0 0 0 0 0 0 0 0 0 0 0 0 0 0 0 0 0 0 0 0 0 0 0 0 1 1 1 1 1 1 1 1 0 0 0 0 0 0 0
1 1 0 0 0 0 0 0 0 0 0 0 0 0 0 0 0 0 0 0 0 0 0 0 0 0 0 0 1 1 1 1 1 1 1 1 0 0 0 0 0 0 0
1 0 0 0 0 0 0 0 0 0 0 0 0 0 0 0 0 0 0 0 0 0 0 0 0 0 0 0 0 0 0 0 0 0 0 0 0 0 0 0 0 0 0
0 0 0 0 0 0 0 0 0 0 0 0 0 0 0 0 0 0 0 0 0 0 0 0 0 0 0 0 0 0 0 0 0 0 0 0 0 0 0 0 0 0 0
0 0 0 0 0 0 0 0 0 0 0 0 0 0 0 0 0 0 0 0 0 0 0 0 0 0 0 0 0 0 0 0 0 0 0 0 0 0 0 0 0 0 0
1 0 0 0 0 0 0 0 0 0 0 0 0 0 0 0 0 0 0 0 0 0 0 0 0 0 0 0 0 0 0 0 0 0 0 0 0 0 0 0 0 0 0
1 1 0 0 0 0 0 0 0 0 0 0 0 0 0 0 0 0 0 0 0 0 0 0 0 0 0 0 0 0 0 0 0 0 0 0 0 0 0 0 0 0 0
1 1 0 0 0 0 0 0 0 0 0 0 0 0 0 0 0 0 0 0 0 0 0 0 0 0 0 0 0 0 0 0 0 0 0 0 0 0 0 0 0 0 0
1 1 0 0 0 0 0 0 0 0 0 0 0 0 0 0 0 0 0 0 0 0 0 0 0 0 0 0 0 0 0 0 0 0 0 0 0 0 0 0 0 0 0
1 1 1 1 1 0 0 0 0 0 0 0 0 0 0 0 0 0 0 0 0 0 0 0 0 0 0 0 0 0 0 0 0 0 0 0 0 0 0 0 0 0 0
1 1 1 1 1 1 0 0 0 0 0 0 0 0 0 0 0 0 0 0 0 0 0 0 0 0 0 0 0 0 0 0 0 0 0 0 0 0 0 0 0 0 0
2 2 1 1 1 1 1 0 0 0 0 0 0 0 0 0 0 0 0 0 0 0 0 0 0 0 0 0 0 0 0 0 0 0 0 0 0 0 0 0 0 0 0
2 2 1 1 0 1 1 0 0 0 0 0 0 0 0 0 0 0 0 0 0 0 0 0 0 0 0 0 0 0 0 0 0 0 0 0 0 0 0 0 0 0 0
2 1 1 0 0 0 1 1 0 0 0 0 0 0 0 0 0 0 0 0 0 0 0 0 0 0 0 0 0 0 0 0 0 0 0 0 0 0 0 0 0 0 0
1 1 0 0 0 0 0 1 1 0 0 0 0 0 0 0 0 0 0 0 0 0 0 0 0 0 0 0 0 0 0 0 0 0 0 0 0 0 0 0 0 0 0
0 0 0 0 0 0 0 1 1 0 0 0 0 0 0 0 0 0 0 0 0 0 0 0 0 0 0 0 0 0 0 0 0 0 0 0 0 0 0 0 0 0 0
0 0 0 0 0 0 0 0 0 0 0 0 0 0 0 0 0 0 0 0 0 0 0 0 0 0 0 0 0 0 0 0 0 0 0 0 0 0 0 0 0 0 0
0 0 0 0 0 0 0 0 0 0 0 0 0 0 0 0 0 0 0 0 0 0 0 0 0 0 0 0 0 0 0 0 0 0 0 0 0 0 0 0 0 0 0
0 0 0 0 0 0 0 0 0 0 0 0 0 0 0 0 0 0 0 0 0 0 0 0 0 0 0 0 0 0 0 0 0 0 0 0 0 0 0 0 0 0 0
0 0 0 0 0 0 0 0 0 0 0 0 0 0 0 0 0 0 0 0 0 0 0 0 0 0 0 0 0 0 0 0 0 0 0 0 0 0 0 0 0 0 0
0 0 0 0 0 0 0 0 0 0 0 0 0 0 0 0 0 0 0 0 0 0 0 0 0 0 0 0 0 0 0 0 0 0 0 0 0 0 0 0 0 0 0
0 0 0 0 0 0 0 0 0 0 0 0 0 0 0 0 0 0 0 0 0 0 0 0 0 0 0 0 0 0 0 0 0 0 0 0 0 0 0 0 0 0 0
Wind_Speed
3 2 2 2 2 2 3 3 3 4 4 4 4 4 4 3 3 2 2 5 5 6 8 9 9 9 9 9 9 9 9 8 8 8 8 8 8 8 9 9 9 9 9
3 3 2 2 2 2 2 3 3 3 3 3 4 4 3 3 3 3 3 3 5 6 7 8 8 8 8 8 8 7 7 8 8 8 8 7 7 7 7 7 8 8 8
3 3 3 2 2 2 3 3 4 3 3 4 4 4 3 3 3 3 3 2 3 5 6 7 7 7 7 7 8 7 7 7 7 7 7 7 7 7 7 7 7 7 7
3 3 3 2 2 2 3 4 3 3 3 3 3 3 2 2 3 3 3 3 2 2 4 6 6 6 6 6 6 7 7 6 6 6 6 6 6 6 6 6 7 7 7
3 3 3 2 3 3 3 4 3 3 4 4 3 3 3 2 2 2 3 3 2 2 2 4 6 6 5 5 5 5 6 6 5 5 5 5 5 6 6 6 6 6 7
4 3 2 3 3 3 3 3 4 3 3 4 4 4 3 2 2 2 2 2 2 2 2 2 2 3 4 5 5 4 5 5 5 5 4 4 5 5 5 6 6 7 7
4 4 3 3 3 3 4 5 4 4 3 3 3 3 2 3 2 2 1 2 2 2 2 2 2 2 2 4 4 5 5 5 5 5 5 4 4 4 4 5 6 6 6
4 4 4 4 3 3 5 5 4 3 2 2 3 3 2 1 1 1 1 1 1 1 2 2 2 2 2 1 3 4 4 4 4 4 4 4 3 3 4 4 5 5 6
4 4 5 4 4 4 5 6 5 5 4 2 1 3 4 3 1 0 1 1 1 1 1 1 1 1 2 1 1 3 4 4 3 3 3 3 3 3 3 4 4 4 5
3 4 5 5 4 3 4 5 5 3 4 4 1 1 1 3 3 2 0 0 1 1 1 1 1 1 1 1 1 2 3 3 3 3 3 3 3 3 3 3 4 4 4
3 4 4 5 5 4 5 5 5 4 4 4 3 2 2 1 2 3 2 1 0 0 0 0 1 1 1 1 1 1 2 2 1 2 2 3 3 3 3 3 3 3 3
2 3 4 4 4 4 5 5 5 5 4 4 3 2 3 3 3 3 3 3 2 1 0 0 0 1 1 1 1 2 2 1 1 1 1 2 2 3 3 3 3 3 3
3 4 3 4 4 4 5 5 5 5 5 5 4 3 2 2 2 3 3 3 2 0 0 0 1 1 1 1 1 2 1 1 1 1 1 1 2 3 3 2 2 3 3
3 3 4 4 4 4 4 4 4 4 4 4 5 4 2 2 2 3 4 4 3 1 1 2 1 1 1 1 1 2 1 1 1 1 1 1 2 2 2 2 2 2 2
3 3 4 4 4 4 4 5 4 5 4 4 4 4 3 3 2 2 3 4 5 4 3 3 2 1 1 1 2 2 1 1 1 1 1 1 2 1 2 2 2 2 2
3 3 3 4 4 4 4 5 4 4 5 4 3 4 3 2 3 2 3 2 2 4 3 3 2 2 2 2 2 2 2 2 1 1 0 1 1 1 1 2 2 2 2
4 3 3 4 4 4 4 5 5 5 5 4 4 4 4 4 3 3 2 2 2 2 3 1 1 1 2 2 2 1 1 1 1 1 1 0 1 1 1 1 1 1 1
4 3 3 3 4 4 5 5 5 5 6 6 5 4 4 3 4 3 3 3 3 3 3 3 2 2 2 3 2 2 1 1 1 2 2 1 1 1 2 2 1 1 1
3 2 3 3 4 5 5 5 5 5 6 6 6 6 5 5 4 3 4 4 3 2 2 3 2 2 1 1 2 1 1 1 0 1 1 1 1 1 1 1 1 1 1
3 3 3 3 4 4 5 5 5 5 5 5 5 5 5 5 6 5 4 4 4 3 3 3 3 2 2 1 2 2 1 1 1 0 0 1 1 1 1 1 0 0 0
3 2 2 3 3 3 4 5 5 5 5 5 4 4 4 5 6 5 4 4 5 4 4 3 3 3 3 3 3 2 3 1 1 1 1 0 0 0 0 1 1 1 1
2 2 2 3 3 3 3 5 5 5 5 5 5 4 4 5 6 7 6 6 6 6 6 4 4 5 5 4 3 3 2 2 2 1 1 1 1 1 1 1 2 2 1
2 2 2 3 3 3 3 4 4 4 5 5 5 4 3 4 5 5 5 5 5 5 7 6 6 6 5 5 5 4 4 3 2 1 2 1 1 2 2 2 3 3 2
3 3 3 3 3 3 4 4 4 4 4 4 5 5 5 5 5 5 5 4 3 3 4 4 5 5 4 4 5 5 4 2 1 0 1 2 1 2 1 1 3 3 3
3 3 3 3 3 3 3 3 3 3 3 4 4 5 5 5 6 7 6 5 3 2 1 2 2 2 3 5 6 4 4 3 2 2 1 2 1 1 1 2 2 2 2
4 3 3 3 3 3 4 4 4 3 3 3 3 3 5 6 7 7 6 6 5 4 3 2 2 2 2 3 5 5 5 4 2 2 2 2 1 1 1 1 1 1 1
Wind_Direction
136 128 122 116 111 111 115 113 108 112 112 109 108 105 96 88 78 70 67 81 88 98 108 108 104 101 100 101 99 95 92 90 89 87 85 86 83 80 76 71 67 65 66
146 143 135 132 128 126 124 124 123 118 116 113 110 107 99 88 77 74 64 67 73 84 100 108 104 101 99 99 98 95 91 90 89 88 87 88 86 83 77 72 70 69 68
151 150 149 146 144 133 125 117 112 105 109 107 102 103 100 92 82 75 69 59 60 70 80 96 100 96 94 97 97 97 96 92 89 89 90 85 84 81 76 73 70 71 71
149 152 155 155 149 138 131 126 121 110 105 109 104 93 89 91 85 81 75 68 60 57 68 76 84 89 90 90 92 94 96 97 93 92 94 88 82 81 76 73 70 73 73
158 153 158 152 150 143 140 138 125 126 123 119 111 94 82 80 83 83 78 73 71 64 62 68 72 70 69 76 82 87 93 94 96 94 94 92 88 84 78 73 70 72 74
168 156 151 152 150 145 142 141 133 115 125 125 108 87 72 73 75 79 82 75 68 69 67 67 67 60 58 58 61 77 82 80 86 92 99 98 98 92 83 76 73 71 70
178 166 159 155 159 162 162 151 136 129 125 127 108 94 56 60 69 66 80 89 74 67 70 68 72 66 53 51 55 62 65 68 73 84 88 104 103 98 92 83 80 73 69
189 176 162 166 168 159 157 155 144 141 143 154 136 129 121 41 24 49 66 90 84 73 73 76 81 79 70 56 46 58 52 51 56 69 81 81 97 101 94 90 88 81 75
200 184 171 168 173 169 174 172 163 158 163 183 167 148 153 184 175 14 59 81 91 110 98 81 88 86 86 77 51 48 51 47 48 55 60 70 75 89 96 93 88 85 80
213 191 175 172 174 177 177 180 171 166 159 170 168 67 127 147 150 157 236 72 88 104 111 103 112 95 87 84 64 58 57 54 59 54 48 51 57 64 74 77 84 83 84
229 203 181 174 176 182 185 180 175 175 173 171 164 148 115 92 124 146 172 192 79 24 186 189 164 130 111 102 106 72 67 57 65 66 49 44 42 42 52 69 73 82 87
238 214 192 184 183 184 187 187 183 184 184 170 164 160 161 159 169 158 163 177 190 231 298 254 191 180 161 148 134 96 78 61 45 50 54 46 38 31 38 51 62 69 72
258 219 204 199 192 193 191 185 181 188 187 178 177 184 182 178 158 151 146 153 156 191 259 286 245 209 172 169 170 123 80 57 44 27 30 49 48 36 33 41 65 71 62
260 235 211 206 203 197 190 185 181 189 189 190 187 184 182 181 165 159 155 147 144 173 226 234 237 202 185 175 154 132 124 84 43 24 15 36 52 48 47 54 75 71 61
265 251 219 209 206 202 191 185 187 190 188 192 191 189 186 182 175 174 157 160 159 177 214 213 205 198 183 167 155 150 150 138 133 69 37 57 65 62 78 72 87 72 54
267 249 237 212 207 205 200 189 185 187 188 192 185 186 188 177 170 174 172 172 170 165 190 205 201 184 169 165 160 157 166 152 175 187 108 86 85 90 95 94 107 94 72
263 243 247 222 209 208 206 197 194 187 190 191 186 186 193 179 173 180 173 170 173 158 175 202 175 164 163 175 171 169 167 180 208 202 208 191 143 127 119 103 106 107 72
259 238 243 241 217 209 206 203 197 193 194 195 193 188 195 186 183 181 180 186 186 181 170 188 185 174 186 185 172 172 168 183 209 209 208 199 161 133 122 104 86 79 66
269 249 231 243 230 214 208 207 199 194 198 199 195 193 195 184 193 190 187 189 187 182 174 171 183 171 170 169 153 154 156 186 222 204 191 179 155 129 117 113 105 83 51
261 254 242 250 244 221 210 204 202 198 200 203 199 197 193 194 200 193 191 192 179 176 172 170 177 173 170 164 165 176 199 205 231 240 173 126 122 106 118 129 140 153 47
271 260 256 255 257 226 211 205 202 201 201 200 195 194 197 200 201 196 194 189 179 181 179 182 182 178 183 181 195 186 200 187 239 186 176 210 167 155 234 239 222 215 223
281 264 252 246 258 247 228 219 210 205 199 198 198 196 199 202 203 201 201 194 188 185 190 191 195 202 205 198 183 176 174 174 235 204 173 238 180 212 230 230 232 220 237
280 274 264 249 254 258 236 224 217 210 199 199 199 195 195 198 193 193 194 196 205 205 197 193 196 206 202 196 180 182 192 201 217 185 158 233 214 235 238 245 243 232 240
268 261 260 252 251 260 245 221 220 212 203 200 200 195 195 195 194 186 179 183 197 210 212 203 202 207 203 190 186 187 180 154 82 248 175 210 220 238 257 255 251 236 241
271 263 258 247 243 257 251 224 222 213 204 201 198 193 191 192 191 183 177 180 184 197 188 170 165 165 170 170 159 141 149 158 212 227 190 191 211 245 270 266 264 255 255
265 269 268 255 239 245 254 239 226 205 202 197 190 191 192 190 186 184 182 180 189 193 164 148 125 104 131 150 160 173 174 173 175 210 192 178 182 166 273 279 264 276 271